Find Starlink 33780

NORAD ID: 63459 Int'l Des: 2025-069 Owner: SPXS Country: US Constellation: starlink operational
LEOCIRCULAR

リアルタイム位置

3D地球を読み込み中...

Starlink 33780について

説明を読み込み中...

次回通過

Passes for default location (London). Set your location on the main map for personalized predictions.

高度履歴

Loading altitude history...

軌道要素

1 63459U 25069AC 26133.38589773 .00017699 00000-0 41497-3 0 9994
2 63459 53.1592 200.2665 0000919 65.4311 294.6791 15.42178695 63223
Epoch: May 13, 2026 • Age: 7 hours

現在のステータス

高度 440.7 km
速度 7.65 km/s
衛星直下点 1.01°N, 97.11°W
打ち上げ日 Apr 4, 2025
運用期間 1.1 years
タイプ internet

技術仕様

分類 Payload
質量 575.00 kg
乾燥質量 530.00 kg
総質量 575.00 kg
長さ 0.30 m
直径 4.10 m
スパン 29.00 m
形状 Box + pan
製造者 SPXS
バスタイプ Starlink V2MO
フェーズステータス In Orbit
所有者/国 SPXS/US

Most Searched